Weather Roundup
Issued by NWS Corpus Christi, TX

Home | Current Version | Previous Version | Text Only | Print | Product List | Glossary On
Versions: 1 2 3 4 5 6 7 8 9 10 11 12 13 14 15 16 17 18 19 20 21 22 23 24 25 26 27 28 29 30 31 32 33 34 35 36 37 38 39 40 41 42 43 44 45 46 47 48 49 50
000
ASUS44 KCRP 060210
HRRCRP

SOUTH TEXAS REGIONAL WEATHER ROUNDUP
NATIONAL WEATHER SERVICE CORPUS CHRISTI TX
900 PM CDT TUE MAY 05 2015


TXZ229>244-060300-
...CORPUS CHRISTI AREA OBSERVATIONS...

CITY           SKY/WX    TMP DP  RH WIND       PRES   REMARKS
CORPUS CHRISTI MOCLDY    77  72  84 SE21      29.90R
NAS CORPUS CHR CLOUDY    77  73  87 SE20      29.90R
ROCKPORT       CLOUDY    78  72  81 SE21      29.91R
KINGSVILLE NAS CLOUDY    78  75  90 SE13G24   29.89R
ALICE          CLOUDY    77  72  84 SE15      29.87R
FALFURRIAS     PTCLDY    77  71  81 SE10      29.87R
$$

...VICTORIA AREA OBSERVATIONS...

CITY           SKY/WX    TMP DP  RH WIND       PRES   REMARKS
VICTORIA       LGT RAIN  75  72  90 SE15G24   29.92S
BEEVILLE       CLOUDY    75  74  99 SE13G20   29.90R
PLEASANTON     RAIN      73  69  87 SE12G18   29.88R
SAN ANTONIO    CLOUDY    73  70  90 SE10      29.91R
$$

...LAREDO AREA OBSERVATIONS...

CITY           SKY/WX    TMP DP  RH WIND       PRES   REMARKS
LAREDO         MOCLDY    77  71  81 SE14      29.85R
COTULLA        CLOUDY    77  69  76 SE14      29.85R
DEL RIO        MOCLDY    73  68  84 E8        29.83R
MCALLEN        MOCLDY    80  70  71 SE17G26   29.87R
HEBBRONVILLE     N/A     76  70  81 SE10G16   29.88R
$$

...OTHER TEXAS OBSERVATIONS...

CITY           SKY/WX    TMP DP  RH WIND       PRES   REMARKS
BROWNSVILLE    CLOUDY    78  73  84 SE17      29.89R
HOUSTON        MOCLDY    75  68  78 SE17      30.00R
COL. STATION   CLOUDY    75  67  76 SE13      29.95R
AUSTIN         LGT RAIN  74  68  81 S14       29.91R
WACO           LGT RAIN  74  66  76 SE18      29.92R
FORT WORTH     CLOUDY    73  67  81 SE14G25   29.91R
WICHITA FALLS  CLOUDY    66  65  96 E10       29.84R
LUBBOCK        PTCLDY    59  55  87 E8        29.85R
EL PASO        PTCLDY    75  32  20 W16G24    29.87R
$$

...MARINE OBSERVATIONS...

STATION/POSITION TIME  SKY/WX   TEMP    WIND        PRES    VSBY  WAVE   SWELL
                                AIR SEA DIR/SP/G                  HT/PER HT/PER
                 (UTC)          (F)     (DEG/KT/KT) (MB)    (MI)  (FT/S) (FT/S)
PORT ARANSAS     0200            76 77  110/ 20/ 22 1013.1R
BUOY 90 E PORT A 0150            76 75  120/ 17/ 21 1014.5R         6/ 9   3/ 9
BUOY 45 SE BAFFI 0150            76 75  130/ 17/ 21 1011.8R         5/ 6
BUOY 200 E PT IS 0150            78 77  110/ 17/ 19 1014.0R         6/ 7   2/ 9
BUOY 15 E GALVES 0150            76 75  110/ 17/ 21 1015.3R         5/ 5   2/ 8
$$


USA.gov is the U.S. government's official web portal to all federal, state and local government web resources and services.